This demonstration page uses our WeatherBlox Daily Observations layout. Learn more.

Left ArrowRight Arrow

36.19886, -115.1175

Hourly Observations for May 23, 2020

Temp ( °F °C ) Dew Point ( °F °C ) Humidity (%) Winds ( mph kmh ) Pressure ( in mb ) Visibility ( mi km ) Precip ( " mm )
12:53 am 00:53 Clear 75 23.9 32 undefined 21 21 NW 28 44 29.69 1006 10 16 N/A
1:53 am 01:53 Clear 72 22.2 32 undefined 23 23 NW 25 41 29.72 1007 10 16 N/A
2:53 am 02:53 Clear 70 21.1 31 -0.6 23 23 NW 25 41 29.74 1007 10 16 N/A
3:53 am 03:53 Clear 68 20 30 -1.1 24 24 NW 30 48 29.77 1008 10 16 N/A
4:53 am 04:53 Clear 67 19.4 28 -2.2 23 23 NW 29 46 29.79 1009 10 16 N/A
5:53 am 05:53 Sunny 65 18.3 25 -3.9 22 22 WNW 29 46 29.82 1010 10 16 N/A
6:53 am 06:53 Sunny 66 18.9 24 -4.4 20 20 NW 29 46 29.85 1011 10 16 N/A
7:53 am 07:53 Sunny 67 19.4 23 -5 19 19 NW 26 43 29.87 1012 10 16 N/A
8:53 am 08:53 Sunny 68 20 21 -6.1 17 17 NNW 23 37 29.89 1012 10 16 N/A
9:53 am 09:53 Sunny 72 22.2 21 -6.1 15 15 NNW 24 39 29.89 1012 10 16 N/A
10:53 am 10:53 Sunny 74 23.3 18 -7.8 12 12 NNW 21 33 29.89 1012 10 16 N/A
11:53 am 11:53 Sunny 76 24.4 15 -9.4 10 10 NW 22 35 29.88 1012 10 16 N/A
12:53 pm 12:53 Sunny 79 26.1 12 -11.1 8 8 NNW 18 30 29.87 1012 10 16 N/A
1:53 pm 13:53 Sunny 81 27.2 13 -10.6 7 7 NNW 16 26 29.85 1011 10 16 N/A
2:53 pm 14:53 Sunny 81 27.2 10 -12.2 7 7 VRB 3 6 29.84 1011 10 16 N/A
3:53 pm 15:53 Sunny 82 27.8 14 -10 8 8 NNW 7 11 29.84 1011 10 16 N/A
4:53 pm 16:53 Sunny 83 28.3 8 -13.3 6 6 NNW 5 7 29.82 1010 10 16 N/A
5:53 pm 17:53 Sunny 83 28.3 9 -12.8 6 6 N 9 15 29.82 1010 10 16 N/A
6:53 pm 18:53 Sunny 82 27.8 11 -11.7 7 7 NW 13 20 29.82 1010 10 16 N/A
7:53 pm 19:53 Clear 80 26.7 12 -11.1 7 7 N 7 11 29.84 1010 10 16 N/A
8:53 pm 20:53 Clear 78 25.6 12 -11.1 8 8 N 5 7 29.85 1011 10 16 N/A
9:53 pm 21:53 Clear 75 23.9 14 -10 10 10 NNW 7 11 29.87 1011 10 16 N/A
10:53 pm 22:53 Clear 72 22.2 15 -9.4 11 11 NW 8 13 29.88 1012 10 16 N/A
11:53 pm 23:53 Clear 72 22.2 15 -9.4 11 11 NW 6 9 29.88 1012 10 16 N/A

Powered by AerisWeather